COSMOS 1082

Satellite information

Favourite Embed

Satellite Type and Status

PAYLOADIN ORBIT

Key statistics

Satellite COSMOS 1082 at a glance.

Uptime

17082

Days in orbit

Revolutions

≈ 12.5

Per day

Orbit

LEO

Low Earth Orbit

Inclination

74.0

Latest

Satellite identification and parameters

Extended collection of information and parameters for COSMOS 1082.

Object identification

Identified? True

Debris? False

Object name: COSMOS 1082

International designator: 1979-024B

Object number (NORAD): 11297

Object ID (CCSDS): 11297

Country: COMMONWEALTH OF INDEPENDENT STATES (CIS)

Current information (Y/N): Y

RCS size: MEDIUM

Orbital parameters

Period: 114.745 minutes

Inclination: 74.0353 deg

SMA: 7821.95 km

Apoapsis: 1463.994 km

Periapsis: 1423.637 km

RAAN: 7.1944 deg

Eccentricy: 0.00257969

Argument of periapsis: 106.1779 deg

Mean anomaly: 66.9926 deg

Mean motion: 12.54960841 rev/day

Mean motion (dot): -0.00000006 rev/day2

B* drag term: 0.000062844519 1/REarth

Two-line elements (TLE)

Creation date: Dec. 20, 2025, 3:40 a.m.

Reference frame: TEME

Reference center: EARTH

Epoch: Dec. 19, 2025, 7:07 p.m. UTC

TLE line 0: 0 COSMOS 1082

TLE line 1: 1 11297U 79024B 25353.79708260 -.00000006 00000-0 62845-4 0 9995

TLE line 2: 2 11297 74.0353 7.1944 0025797 106.1779 66.9926 12.54960841742269

Live tracking on map

Real-time ground track for satellite COSMOS 1082.

In-orbit conjunctions

A list of the most updated potential collisions computed for object COSMOS 1082.

Target Orbit TCA Probability of collision Miss distance Type
SL-8 DEB MEO 2025-10-06 17:51:59 0.001456112 82.0 (m) DEBRIS

Associated space launch

Military communications satellites

COSMOS 1082 was lifted into orbit during the mission ‘Kosmos-3M | Strela-1M 169-176’, on board a Kosmos-3M space rocket.

The launch took place on March 15, 1979, 2:58 a.m. from 132/2.

For more information about the launch, click the button.

Launch to space Kosmos-3M | Strela-1M 169-176
Kosmos-3M | Strela-1M 169-176

Agency: N/A

Status: Launch Successful

Launch date: March 15, 1979, 2:58 a.m. UTC

Rocket: Kosmos-3M

Launch pad: 132/2

Location: Plesetsk Cosmodrome, Russian Federation

...

Latest news about this satellite

There are no fresh news available about this satellite. Check back as we update our databases every day.


Newsletter sign-up

Weekly statistics, charts and insights to help you stay on top of the space industry.